ATLAS D R/B, 1616

Orbit data source: Space-Track

ATLAS D R/B, 1616 is space debris in LEO originally from a launch on Tue, 05 Oct 1965 UTC launched from the Air Force Western Test Range (AFWTR). Debris objects in space refer to the collection of defunct objects orbiting the Earth. Examples of debris include non-operational satellites, rocket bodies, and fragments generated from explosions, collisions, or faulty payload assembly.

Loading next visibility...
Identifier
1616, 1965-078B
Orbit
LEO
Last TLE update
2 days ago
Origin
Manufacturer
ABL
Mission
Spacecraft
Bus & Motor
ALTAIR, Unknown motor
Mass
70 kg wet, 70 kg dry
Launch date (UTC)
1965-10-05 (60 years ago)
Launch vehicle
Unknown
Launch site
Air Force Western Test Range (AFWTR)
Object type
Payload
Rocket body
Debris
Shape & HBR
Cyl, 3.1 m
Radar Cross Section
8.765 m², Medium (>0.1 m² and < 1m²)

Expand to show TLE details & history

TLE from 2 days ago
0 ATLAS D R/B
1 01616U 65078B   25118.85065366  .00008536  00000-0  74367-3 0  9998
2 01616 144.2258 130.5103 0994611 312.1398  39.8914 13.31462138695334
Epoch: 2025-04-28T20:24Z
Definitive object data (Epoch: 2025-04-28T20:24:56.476Z)
Latitude
-0.00002°
Longitude
-32.78375°
Altitude
600.896 km
Speed
7.827 km/s
True Right ascension
08h 42m 02s
True Declination
0° 00' 00"
Sunlit
Object was in daylight at TLE epoch
Visualization TLE readout
Latitude
17.99254°
Longitude
-49.64249°
Altitude
774.134 km
Speed
7.649 km/s
Apparent Right ascension
09h 41m 16s
Apparent Declination
-37° 32' 08"
Sunlit
Object is in daylight
Visualization observer readout
Local Sidereal Time
06:33:59
Azimuth
144.659° SSE
Elevation
1.446°
Doppler factor
1
Orbital elements
Apogee altitude
1,892.332 km
Perigee altitude
395.981 km
Semi-major axis
7,522.293 km
Eccentricity
0.0994611
Inclination
144.2258°
RAAN
130.5103°
Arg. of periapsis
312.1398°
True anomaly
47.94121°
Mean anomaly
39.8914°
Eccentric anomaly
43.83848°
Mean motion
3.32673 °/min
BSTAR
0.00074367
Orbital period
108.21 mins
Loading maneuver chart data...
Loading SW <> Apogee altitude chart data...
Loading historical data...
Loading historical data...
Loading historical data...
Loading historical data...
Loading historical data...
Loading historical data...
Loading historical data...
Other satellites on launch #78 in the year 1965 (1965-10-05 UTC)

ATLAS D R/B Visibility forecast

Observer location: undefined°, undefined°

Span
Click to sort rows by Start time (UTC) header in descending order
Start Az.
Max El. time (UTC)
Max El. Az.
Max El.
End time (UTC)
End Az.
10 mins2025-04-30 22:59:55.428Z157.146° SSE2025-04-30 23:03:55.428Z207.123° SW23.667°2025-04-30 23:09:55.428Z265.899° W
16 mins2025-05-01 15:35:55.428Z95.033° ESE2025-05-01 15:43:55.428Z152.24° SSE25.803°2025-05-01 15:51:55.428Z204.847° SW
16 mins2025-05-01 17:17:55.428Z91.156° ESE2025-05-01 17:24:55.428Z157.044° SSE37.652°2025-05-01 17:33:55.428Z232.534° WSW
15 mins2025-05-01 19:00:55.428Z96.172° ESE2025-05-01 19:06:55.428Z187.223° SSW42.495°2025-05-01 19:15:55.428Z255.831° W
12 mins2025-05-01 20:43:55.428Z113.405° SE2025-05-01 20:47:55.428Z174.334° S41.737°2025-05-01 20:55:55.428Z268° W
10 mins2025-05-01 22:26:55.428Z145.728° SSE2025-05-01 22:30:55.428Z210.783° SW31.467°2025-05-01 22:36:55.428Z269.203° W
|